Time,TemperatureF,DewpointF,PressureIn,WindDirection,WindDirectionDegrees,WindSpeedMPH,WindSpeedGustMPH,Humidity,HourlyPrecipIn,Conditions,Clouds,dailyrainin,SolarRadiationWatts/m^2,SoftwareType,DateUTC
2013-08-26 00:00:00,70.3,61.6,30.23,SW,234,21.0,23.0,74,0.00,,,0.00,0.00,VWS V14.01,2013-08-26 04:00:00,
2013-08-26 00:01:00,69.8,64.4,30.22,SSW,208,20.0,25.0,83,0.00,,,0.00,0.00,VWS V14.01,2013-08-26 04:01:00,
2013-08-26 00:06:00,69.7,64.0,30.22,SW,224,22.0,25.0,82,0.00,,,0.00,0.00,VWS V14.01,2013-08-26 04:06:00,
2013-08-26 00:11:00,69.8,64.4,30.21,SW,221,22.0,25.0,83,0.00,,,0.00,0.00,VWS V14.01,2013-08-26 04:11:00,
2013-08-26 00:15:00,70.1,63.3,30.23,SW,231,19.0,23.0,79,0.00,,,0.00,0.00,VWS V14.01,2013-08-26 04:15:00,
2013-08-26 00:16:00,69.7,64.3,30.21,SSW,211,24.0,24.0,83,0.00,,,0.00,0.00,VWS V14.01,2013-08-26 04:16:00,
2013-08-26 00:21:00,69.6,64.2,30.21,SW,229,20.0,25.0,83,0.00,,,0.00,0.00,VWS V14.01,2013-08-26 04:21:00,
2013-08-26 00:26:00,69.5,64.1,30.21,SW,226,20.0,25.0,83,0.00,,,0.00,0.00,VWS V14.01,2013-08-26 04:26:00,
2013-08-26 00:30:00,69.9,63.1,30.23,SW,223,20.0,23.0,79,0.00,,,0.00,0.00,VWS V14.01,2013-08-26 04:30:00,
2013-08-26 00:31:00,69.6,63.9,30.21,SW,226,23.0,24.0,82,0.00,,,0.00,0.00,VWS V14.01,2013-08-26 04:31:00,
2013-08-26 00:36:00,69.6,63.9,30.21,SW,225,24.0,26.0,82,0.00,,,0.00,0.00,VWS V14.01,2013-08-26 04:36:00,
2013-08-26 00:41:00,69.7,64.0,30.21,SW,223,23.0,26.0,82,0.00,,,0.00,0.00,VWS V14.01,2013-08-26 04:41:00,
2013-08-26 00:45:00,70.1,64.0,30.22,SW,221,18.0,24.0,81,0.00,,,0.00,0.00,VWS V14.01,2013-08-26 04:45:00,
2013-08-26 00:46:00,69.7,63.6,30.21,SW,232,23.0,24.0,81,0.00,,,0.00,0.00,VWS V14.01,2013-08-26 04:46:00,
2013-08-26 00:51:00,69.7,63.6,30.21,SW,231,19.0,26.0,81,0.00,,,0.00,0.00,VWS V14.01,2013-08-26 04:51:00,
2013-08-26 00:56:00,69.8,64.4,30.21,WSW,240,18.0,26.0,83,0.00,,,0.00,0.00,VWS V14.01,2013-08-26 04:56:00,
2013-08-26 01:00:00,69.8,64.4,30.22,SW,217,24.0,25.0,83,0.00,,,0.00,0.00,VWS V14.01,2013-08-26 05:00:00,
2013-08-26 01:01:00,69.7,63.6,30.21,SW,228,23.0,23.0,81,0.00,,,0.00,0.00,VWS V14.01,2013-08-26 05:01:00,
2013-08-26 01:06:00,69.7,63.6,30.21,SW,233,23.0,24.0,81,0.00,,,0.00,0.00,VWS V14.01,2013-08-26 05:06:00,
2013-08-26 01:11:00,69.7,64.3,30.21,SW,222,22.0,24.0,83,0.00,,,0.00,0.00,VWS V14.01,2013-08-26 05:11:00,
2013-08-26 01:15:00,69.7,64.3,30.21,SW,221,24.0,26.0,83,0.00,,,0.00,0.00,VWS V14.01,2013-08-26 05:15:00,
2013-08-26 01:16:00,69.7,64.0,30.21,SW,221,24.0,24.0,82,0.00,,,0.00,0.00,VWS V14.01,2013-08-26 05:16:00,
2013-08-26 01:21:00,69.7,64.3,30.21,SW,220,21.0,24.0,83,0.00,,,0.00,0.00,VWS V14.01,2013-08-26 05:21:00,
2013-08-26 01:26:00,69.7,64.3,30.21,SW,223,19.0,24.0,83,0.00,,,0.00,0.00,VWS V14.01,2013-08-26 05:26:00,
2013-08-26 01:30:00,69.6,64.2,30.21,SW,231,24.0,25.0,83,0.00,,,0.00,0.00,VWS V14.01,2013-08-26 05:30:00,
2013-08-26 01:31:00,69.6,64.2,30.21,SW,224,22.0,23.0,83,0.00,,,0.00,0.00,VWS V14.01,2013-08-26 05:31:00,
2013-08-26 01:36:00,69.6,64.6,30.21,SW,221,21.0,24.0,84,0.00,,,0.00,0.00,VWS V14.01,2013-08-26 05:36:00,
2013-08-26 01:41:00,69.6,64.2,30.20,SW,227,18.0,24.0,83,0.00,,,0.00,0.00,VWS V14.01,2013-08-26 05:41:00,
2013-08-26 01:45:00,69.7,63.6,30.21,SW,226,24.0,26.0,81,0.00,,,0.00,0.00,VWS V14.01,2013-08-26 05:45:00,
2013-08-26 01:46:00,69.6,63.9,30.20,SW,228,21.0,21.0,82,0.00,,,0.00,0.00,VWS V14.01,2013-08-26 05:46:00,
2013-08-26 01:51:00,69.6,63.9,30.20,SW,235,21.0,25.0,82,0.00,,,0.00,0.00,VWS V14.01,2013-08-26 05:51:00,
2013-08-26 01:56:00,69.6,64.2,30.20,SW,234,19.0,25.0,83,0.00,,,0.00,0.00,VWS V14.01,2013-08-26 05:56:00,
2013-08-26 02:00:00,69.7,63.6,30.21,SW,236,22.0,26.0,81,0.00,,,0.00,0.00,VWS V14.01,2013-08-26 06:00:00,
2013-08-26 02:01:00,69.5,64.1,30.20,SW,221,23.0,23.0,83,0.00,,,0.00,0.00,VWS V14.01,2013-08-26 06:01:00,
2013-08-26 02:06:00,69.5,64.5,30.20,SW,229,19.0,24.0,84,0.00,,,0.00,0.00,VWS V14.01,2013-08-26 06:06:00,
2013-08-26 02:11:00,69.4,64.0,30.19,SW,231,21.0,24.0,83,0.00,,,0.00,0.00,VWS V14.01,2013-08-26 06:11:00,
2013-08-26 02:15:00,69.7,64.0,30.21,SW,228,23.0,24.0,82,0.00,,,0.00,0.00,VWS V14.01,2013-08-26 06:15:00,
2013-08-26 02:16:00,69.4,64.0,30.19,SW,229,22.0,22.0,83,0.00,,,0.00,0.00,VWS V14.01,2013-08-26 06:16:00,
2013-08-26 02:21:00,69.4,64.7,30.19,SSW,205,17.0,23.0,85,0.00,,,0.00,0.00,VWS V14.01,2013-08-26 06:21:00,
2013-08-26 02:26:00,69.5,64.8,30.19,SW,235,18.0,23.0,85,0.00,,,0.00,0.00,VWS V14.01,2013-08-26 06:26:00,
2013-08-26 02:30:00,69.6,64.2,30.21,SW,223,23.0,25.0,83,0.00,,,0.00,0.00,VWS V14.01,2013-08-26 06:30:00,
2013-08-26 02:31:00,69.4,64.7,30.19,SW,228,20.0,21.0,85,0.00,,,0.00,0.00,VWS V14.01,2013-08-26 06:31:00,
2013-08-26 02:36:00,69.5,64.8,30.19,SW,227,23.0,23.0,85,0.00,,,0.00,0.00,VWS V14.01,2013-08-26 06:36:00,
2013-08-26 02:41:00,69.4,64.7,30.19,SW,233,19.0,24.0,85,0.00,,,0.00,0.00,VWS V14.01,2013-08-26 06:41:00,
2013-08-26 02:45:00,69.5,63.8,30.20,SW,217,18.0,24.0,82,0.00,,,0.00,0.00,VWS V14.01,2013-08-26 06:45:00,
2013-08-26 02:46:00,69.4,65.0,30.19,SW,229,21.0,23.0,86,0.00,,,0.00,0.00,VWS V14.01,2013-08-26 06:46:00,
2013-08-26 02:51:00,69.4,64.7,30.19,SW,234,21.0,23.0,85,0.00,,,0.00,0.00,VWS V14.01,2013-08-26 06:51:00,
2013-08-26 02:56:00,69.3,64.6,30.19,SW,227,22.0,24.0,85,0.00,,,0.00,0.00,VWS V14.01,2013-08-26 06:56:00,
2013-08-26 03:00:00,69.5,64.1,30.20,SW,217,23.0,25.0,83,0.00,,,0.00,0.00,VWS V14.01,2013-08-26 07:00:00,
2013-08-26 03:01:00,69.3,64.6,30.19,SW,220,17.0,19.0,85,0.00,,,0.00,0.00,VWS V14.01,2013-08-26 07:01:00,
2013-08-26 03:06:00,69.3,64.9,30.18,SW,227,22.0,23.0,86,0.00,,,0.00,0.00,VWS V14.01,2013-08-26 07:06:00,
2013-08-26 03:11:00,69.3,64.9,30.18,SW,228,22.0,24.0,86,0.00,,,0.00,0.00,VWS V14.01,2013-08-26 07:11:00,
2013-08-26 03:15:00,69.5,64.5,30.19,SW,234,21.0,24.0,84,0.00,,,0.00,0.00,VWS V14.01,2013-08-26 07:15:00,
2013-08-26 03:16:00,69.3,64.9,30.18,SW,227,24.0,24.0,86,0.00,,,0.00,0.00,VWS V14.01,2013-08-26 07:16:00,
2013-08-26 03:21:00,69.3,65.3,30.18,SW,233,19.0,24.0,87,0.00,,,0.00,0.00,VWS V14.01,2013-08-26 07:21:00,
2013-08-26 03:26:00,69.2,64.8,30.18,SW,225,18.0,24.0,86,0.00,,,0.00,0.00,VWS V14.01,2013-08-26 07:26:00,
2013-08-26 03:30:00,69.4,64.7,30.19,SW,229,21.0,24.0,85,0.00,,,0.00,0.00,VWS V14.01,2013-08-26 07:30:00,
2013-08-26 03:31:00,69.2,64.8,30.17,SW,227,20.0,21.0,86,0.00,,,0.00,0.00,VWS V14.01,2013-08-26 07:31:00,
2013-08-26 03:36:00,69.1,64.7,30.17,SW,229,21.0,23.0,86,0.00,,,0.00,0.00,VWS V14.01,2013-08-26 07:36:00,
2013-08-26 03:41:00,69.1,65.1,30.17,SW,230,21.0,23.0,87,0.00,,,0.00,0.00,VWS V14.01,2013-08-26 07:41:00,
2013-08-26 03:45:00,69.4,65.0,30.19,SW,236,21.0,24.0,86,0.00,,,0.00,0.00,VWS V14.01,2013-08-26 07:45:00,
2013-08-26 03:46:00,69.1,65.1,30.17,SW,224,21.0,21.0,87,0.00,,,0.00,0.00,VWS V14.01,2013-08-26 07:46:00,
2013-08-26 03:51:00,69.2,65.5,30.16,SW,227,22.0,23.0,88,0.00,,,0.00,0.00,VWS V14.01,2013-08-26 07:51:00,
2013-08-26 03:56:00,69.2,64.8,30.16,SW,228,20.0,23.0,86,0.00,,,0.00,0.00,VWS V14.01,2013-08-26 07:56:00,
2013-08-26 04:00:00,69.3,64.6,30.19,SW,231,19.0,24.0,85,0.00,,,0.00,0.00,VWS V14.01,2013-08-26 08:00:00,
2013-08-26 04:01:00,69.2,64.8,30.16,SW,229,16.0,18.0,86,0.00,,,0.00,0.00,VWS V14.01,2013-08-26 08:01:00,
2013-08-26 04:06:00,69.2,64.8,30.16,SW,227,21.0,22.0,86,0.00,,,0.00,0.00,VWS V14.01,2013-08-26 08:06:00,
2013-08-26 04:11:00,69.3,65.3,30.16,SW,228,16.0,22.0,87,0.00,,,0.00,0.00,VWS V14.01,2013-08-26 08:11:00,
2013-08-26 04:15:00,69.3,64.9,30.18,WSW,239,17.0,24.0,86,0.00,,,0.00,0.00,VWS V14.01,2013-08-26 08:15:00,
2013-08-26 04:16:00,69.2,64.8,30.16,SW,223,18.0,20.0,86,0.00,,,0.00,0.00,VWS V14.01,2013-08-26 08:16:00,
2013-08-26 04:21:00,69.2,65.2,30.16,SW,221,18.0,21.0,87,0.00,,,0.00,0.00,VWS V14.01,2013-08-26 08:21:00,
2013-08-26 04:26:00,69.2,64.8,30.16,SW,221,14.0,21.0,86,0.00,,,0.00,0.00,VWS V14.01,2013-08-26 08:26:00,
2013-08-26 04:30:00,69.2,65.2,30.17,SW,231,21.0,24.0,87,0.00,,,0.00,0.00,VWS V14.01,2013-08-26 08:30:00,
2013-08-26 04:31:00,69.2,65.2,30.16,SW,220,19.0,19.0,87,0.00,,,0.00,0.00,VWS V14.01,2013-08-26 08:31:00,
2013-08-26 04:36:00,69.2,64.8,30.16,SW,215,15.0,19.0,86,0.00,,,0.00,0.00,VWS V14.01,2013-08-26 08:36:00,
2013-08-26 04:41:00,69.2,64.8,30.16,SW,218,16.0,20.0,86,0.00,,,0.00,0.00,VWS V14.01,2013-08-26 08:41:00,
2013-08-26 04:45:00,69.2,65.2,30.17,SW,225,20.0,23.0,87,0.00,,,0.00,0.00,VWS V14.01,2013-08-26 08:45:00,
2013-08-26 04:46:00,69.2,64.8,30.15,SW,220,20.0,20.0,86,0.00,,,0.00,0.00,VWS V14.01,2013-08-26 08:46:00,
2013-08-26 04:51:00,69.2,64.8,30.16,SW,217,20.0,20.0,86,0.00,,,0.00,0.00,VWS V14.01,2013-08-26 08:51:00,
2013-08-26 04:56:00,69.1,64.4,30.15,SW,227,21.0,21.0,85,0.00,,,0.00,0.00,VWS V14.01,2013-08-26 08:56:00,
2013-08-26 05:00:00,69.2,65.2,30.16,SW,228,18.0,23.0,87,0.00,,,0.00,0.00,VWS V14.01,2013-08-26 09:00:00,
2013-08-26 05:01:00,69.2,64.5,30.15,SW,227,19.0,20.0,85,0.00,,,0.00,0.00,VWS V14.01,2013-08-26 09:01:00,
2013-08-26 05:06:00,69.2,64.8,30.15,SW,231,17.0,20.0,86,0.00,,,0.00,0.00,VWS V14.01,2013-08-26 09:06:00,
2013-08-26 05:11:00,69.3,64.9,30.15,SW,227,19.0,21.0,86,0.00,,,0.00,0.00,VWS V14.01,2013-08-26 09:11:00,
2013-08-26 05:15:00,69.2,64.8,30.16,SW,227,19.0,22.0,86,0.00,,,0.00,0.00,VWS V14.01,2013-08-26 09:15:00,
2013-08-26 05:16:00,69.3,64.9,30.15,SW,217,20.0,20.0,86,0.00,,,0.00,0.00,VWS V14.01,2013-08-26 09:16:00,
2013-08-26 05:21:00,69.2,64.8,30.15,SW,219,21.0,23.0,86,0.00,,,0.00,0.00,VWS V14.01,2013-08-26 09:21:00,
2013-08-26 05:26:00,69.2,65.2,30.15,SW,221,18.0,23.0,87,0.00,,,0.00,0.00,VWS V14.01,2013-08-26 09:26:00,
2013-08-26 05:30:00,69.3,65.3,30.16,SSW,212,17.0,21.0,87,0.00,,,0.00,0.00,VWS V14.01,2013-08-26 09:30:00,
2013-08-26 05:31:00,69.2,64.8,30.15,SW,221,20.0,20.0,86,0.00,,,0.00,0.00,VWS V14.01,2013-08-26 09:31:00,
2013-08-26 05:36:00,69.2,64.8,30.15,SW,221,21.0,23.0,86,0.00,,,0.00,0.00,VWS V14.01,2013-08-26 09:36:00,
2013-08-26 05:41:00,69.2,64.8,30.15,SW,229,17.0,23.0,86,0.00,,,0.00,0.00,VWS V14.01,2013-08-26 09:41:00,
2013-08-26 05:45:00,69.2,64.8,30.16,SW,215,19.0,21.0,86,0.00,,,0.00,0.00,VWS V14.01,2013-08-26 09:45:00,
2013-08-26 05:46:00,69.2,64.8,30.15,SW,222,20.0,21.0,86,0.00,,,0.00,0.00,VWS V14.01,2013-08-26 09:46:00,
2013-08-26 05:51:00,69.3,64.9,30.15,SW,223,19.0,22.0,86,0.00,,,0.00,0.00,VWS V14.01,2013-08-26 09:51:00,
2013-08-26 05:56:00,69.2,64.8,30.14,SW,229,20.0,23.0,86,0.00,,,0.00,0.00,VWS V14.01,2013-08-26 09:56:00,
2013-08-26 06:00:00,69.2,64.5,30.15,SW,227,20.0,23.0,85,0.00,,,0.00,0.00,VWS V14.01,2013-08-26 10:00:00,
2013-08-26 06:01:00,69.2,64.8,30.15,SW,229,19.0,21.0,86,0.00,,,0.00,0.00,VWS V14.01,2013-08-26 10:01:00,
2013-08-26 06:06:00,69.2,64.8,30.14,SW,227,16.0,22.0,86,0.00,,,0.00,0.00,VWS V14.01,2013-08-26 10:06:00,
2013-08-26 06:11:00,69.3,64.9,30.14,SW,225,21.0,22.0,86,0.00,,,0.00,0.00,VWS V14.01,2013-08-26 10:11:00,
2013-08-26 06:15:00,69.3,64.9,30.15,SW,229,19.0,21.0,86,0.00,,,0.00,0.00,VWS V14.01,2013-08-26 10:15:00,
2013-08-26 06:16:00,69.3,65.3,30.14,SW,223,18.0,19.0,87,0.00,,,0.00,5.00,VWS V14.01,2013-08-26 10:16:00,
2013-08-26 06:21:00,69.3,65.3,30.14,SW,229,19.0,21.0,87,0.00,,,0.00,7.00,VWS V14.01,2013-08-26 10:21:00,
2013-08-26 06:27:00,69.3,64.9,30.14,SW,225,21.0,21.0,86,0.00,,,0.00,11.00,VWS V14.01,2013-08-26 10:27:00,
2013-08-26 06:30:00,69.2,64.8,30.15,SW,224,19.0,23.0,86,0.00,,,0.00,0.00,VWS V14.01,2013-08-26 10:30:00,
2013-08-26 06:32:00,69.3,64.9,30.14,SW,228,19.0,20.0,86,0.00,,,0.00,11.00,VWS V14.01,2013-08-26 10:32:00,
2013-08-26 06:37:00,69.3,64.6,30.14,SW,226,22.0,24.0,85,0.00,,,0.00,11.00,VWS V14.01,2013-08-26 10:37:00,
2013-08-26 06:42:00,69.4,64.7,30.14,SW,228,24.0,24.0,85,0.00,,,0.00,11.00,VWS V14.01,2013-08-26 10:42:00,
2013-08-26 06:45:00,69.2,64.8,30.15,SW,227,20.0,23.0,86,0.00,,,0.00,0.00,VWS V14.01,2013-08-26 10:45:00,
2013-08-26 06:47:00,69.3,64.6,30.14,SW,229,22.0,22.0,85,0.00,,,0.00,14.00,VWS V14.01,2013-08-26 10:47:00,
2013-08-26 06:52:00,69.4,65.0,30.14,SW,222,18.0,23.0,86,0.00,,,0.00,16.00,VWS V14.01,2013-08-26 10:52:00,
2013-08-26 06:57:00,69.3,64.9,30.13,SW,225,18.0,23.0,86,0.00,,,0.00,21.00,VWS V14.01,2013-08-26 10:57:00,
2013-08-26 07:00:00,69.2,64.8,30.14,SW,232,19.0,23.0,86,0.00,,,0.00,0.00,VWS V14.01,2013-08-26 11:00:00,
2013-08-26 07:02:00,69.3,64.6,30.13,SW,228,16.0,20.0,85,0.00,,,0.00,25.00,VWS V14.01,2013-08-26 11:02:00,
2013-08-26 07:07:00,69.4,65.0,30.13,SW,223,21.0,22.0,86,0.00,,,0.00,30.00,VWS V14.01,2013-08-26 11:07:00,
2013-08-26 07:12:00,69.4,65.0,30.13,SW,216,20.0,24.0,86,0.00,,,0.00,39.00,VWS V14.01,2013-08-26 11:12:00,
2013-08-26 07:17:00,69.4,64.7,30.12,SW,226,22.0,23.0,85,0.00,,,0.00,54.00,VWS V14.01,2013-08-26 11:17:00,
2013-08-26 07:22:00,69.4,64.7,30.12,SW,225,21.0,25.0,85,0.00,,,0.00,76.00,VWS V14.01,2013-08-26 11:22:00,
2013-08-26 07:27:00,69.5,64.8,30.13,SW,227,18.0,25.0,85,0.00,,,0.00,97.00,VWS V14.01,2013-08-26 11:27:00,
2013-08-26 07:30:00,69.3,64.9,30.14,SW,227,19.0,22.0,86,0.00,,,0.00,11.00,VWS V14.01,2013-08-26 11:30:00,
2013-08-26 07:32:00,69.6,64.9,30.12,SW,216,17.0,21.0,85,0.00,,,0.00,95.00,VWS V14.01,2013-08-26 11:32:00,
2013-08-26 07:37:00,69.6,64.6,30.12,SW,225,19.0,25.0,84,0.00,,,0.00,93.00,VWS V14.01,2013-08-26 11:37:00,
2013-08-26 07:42:00,69.5,64.5,30.12,SW,224,24.0,25.0,84,0.00,,,0.00,91.00,VWS V14.01,2013-08-26 11:42:00,
2013-08-26 07:45:00,69.3,64.6,30.14,SW,222,20.0,24.0,85,0.00,,,0.00,14.00,VWS V14.01,2013-08-26 11:45:00,
2013-08-26 07:47:00,69.5,64.5,30.12,SW,224,21.0,23.0,84,0.00,,,0.00,90.00,VWS V14.01,2013-08-26 11:47:00,
2013-08-26 07:52:00,69.5,64.5,30.11,SW,228,24.0,25.0,84,0.00,,,0.00,84.00,VWS V14.01,2013-08-26 11:52:00,
2013-08-26 07:57:00,69.5,64.1,30.11,SSW,213,25.0,26.0,83,0.00,,,0.00,76.00,VWS V14.01,2013-08-26 11:57:00,
2013-08-26 08:00:00,69.3,64.6,30.13,SW,232,20.0,23.0,85,0.00,,,0.00,25.00,VWS V14.01,2013-08-26 12:00:00,
2013-08-26 08:02:00,69.6,64.9,30.11,SW,220,24.0,26.0,85,0.00,,,0.00,76.00,VWS V14.01,2013-08-26 12:02:00,
2013-08-26 08:07:00,69.6,64.9,30.11,SW,227,23.0,26.0,85,0.00,,,0.00,65.00,VWS V14.01,2013-08-26 12:07:00,
2013-08-26 08:12:00,69.5,64.5,30.11,SW,225,26.0,27.0,84,0.00,,,0.00,83.00,VWS V14.01,2013-08-26 12:12:00,
2013-08-26 08:15:00,69.5,65.1,30.12,SW,221,22.0,24.0,86,0.00,,,0.00,51.00,VWS V14.01,2013-08-26 12:15:00,
2013-08-26 08:17:00,69.5,64.1,30.12,SW,229,24.0,24.0,83,0.00,,,0.00,118.00,VWS V14.01,2013-08-26 12:17:00,
2013-08-26 08:22:00,69.6,64.6,30.12,SW,226,23.0,26.0,84,0.00,,,0.00,104.00,VWS V14.01,2013-08-26 12:22:00,
2013-08-26 08:27:00,69.6,64.2,30.12,SW,227,23.0,28.0,83,0.00,,,0.00,91.00,VWS V14.01,2013-08-26 12:27:00,
2013-08-26 08:30:00,69.5,64.8,30.12,SW,224,21.0,25.0,85,0.00,,,0.00,95.00,VWS V14.01,2013-08-26 12:30:00,
2013-08-26 08:32:00,69.6,64.6,30.12,SW,229,21.0,25.0,84,0.00,,,0.00,100.00,VWS V14.01,2013-08-26 12:32:00,
2013-08-26 08:37:00,69.5,64.8,30.12,SW,230,24.0,25.0,85,0.00,,,0.00,102.00,VWS V14.01,2013-08-26 12:37:00,
2013-08-26 08:42:00,69.4,64.4,30.12,SW,236,22.0,25.0,84,0.00,,,0.00,79.00,VWS V14.01,2013-08-26 12:42:00,
2013-08-26 08:45:00,69.5,64.5,30.12,SW,223,23.0,25.0,84,0.00,,,0.00,90.00,VWS V14.01,2013-08-26 12:45:00,
2013-08-26 08:47:00,69.5,64.8,30.12,SW,232,18.0,23.0,85,0.00,,,0.00,86.00,VWS V14.01,2013-08-26 12:47:00,
2013-08-26 08:52:00,69.5,64.5,30.12,SW,230,23.0,24.0,84,0.00,,,0.00,90.00,VWS V14.01,2013-08-26 12:52:00,
2013-08-26 08:57:00,69.6,64.2,30.12,SW,218,19.0,24.0,83,0.00,,,0.00,98.00,VWS V14.01,2013-08-26 12:57:00,
2013-08-26 09:00:00,69.6,64.9,30.11,SW,223,26.0,28.0,85,0.00,,,0.00,74.00,VWS V14.01,2013-08-26 13:00:00,
2013-08-26 09:02:00,69.7,64.3,30.11,SW,236,22.0,22.0,83,0.00,,,0.00,113.00,VWS V14.01,2013-08-26 13:02:00,
2013-08-26 09:07:00,69.7,64.0,30.12,SW,235,20.0,-999.0,83,-99.99,,,0.00,125,weatherlink.com 1.10,2013-08-26 13:07:00,
2013-08-26 09:12:00,69.7,65.0,30.11,SW,223,18.0,24.0,85,0.00,,,0.00,125.00,VWS V14.01,2013-08-26 13:12:00,
2013-08-26 09:15:00,69.5,64.1,30.12,SW,227,24.0,27.0,83,0.00,,,0.00,113.00,VWS V14.01,2013-08-26 13:15:00,
2013-08-26 09:17:00,69.6,64.9,30.11,SW,231,22.0,25.0,85,0.00,,,0.00,137.00,VWS V14.01,2013-08-26 13:17:00,
2013-08-26 09:22:00,69.6,65.2,30.11,SW,231,20.0,26.0,86,0.00,,,0.00,156.00,VWS V14.01,2013-08-26 13:22:00,
2013-08-26 09:27:00,69.6,64.9,30.11,SW,224,21.0,26.0,85,0.00,,,0.00,221.00,VWS V14.01,2013-08-26 13:27:00,
2013-08-26 09:30:00,69.6,64.6,30.12,SW,230,24.0,28.0,84,0.00,,,0.00,98.00,VWS V14.01,2013-08-26 13:30:00,
2013-08-26 09:32:00,69.5,64.8,30.11,SW,229,24.0,24.0,85,0.00,,,0.00,197.00,VWS V14.01,2013-08-26 13:32:00,
2013-08-26 09:37:00,69.6,65.2,30.11,SW,231,21.0,25.0,86,0.00,,,0.00,188.00,VWS V14.01,2013-08-26 13:37:00,
2013-08-26 09:42:00,69.5,65.1,30.10,SW,229,24.0,26.0,86,0.00,,,0.00,153.00,VWS V14.01,2013-08-26 13:42:00,
2013-08-26 09:45:00,69.5,64.5,30.12,SW,234,23.0,25.0,84,0.00,,,0.00,83.00,VWS V14.01,2013-08-26 13:45:00,
2013-08-26 09:47:00,69.5,65.5,30.10,SW,230,26.0,26.0,87,0.00,,,0.00,163.00,VWS V14.01,2013-08-26 13:47:00,
2013-08-26 09:52:00,69.4,65.0,30.10,SW,232,24.0,27.0,86,0.00,,,0.00,169.00,VWS V14.01,2013-08-26 13:52:00,
2013-08-26 09:57:00,69.5,65.1,30.10,SW,220,24.0,27.0,86,0.00,,,0.00,167.00,VWS V14.01,2013-08-26 13:57:00,
2013-08-26 10:00:00,69.7,64.3,30.11,SW,227,22.0,24.0,83,0.00,,,0.00,109.00,VWS V14.01,2013-08-26 14:00:00,
2013-08-26 10:02:00,69.4,65.4,30.10,SW,223,28.0,28.0,87,0.00,,,0.00,214.00,VWS V14.01,2013-08-26 14:02:00,
2013-08-26 10:07:00,69.4,65.4,30.10,SW,221,24.0,28.0,87,0.00,,,0.00,241.00,VWS V14.01,2013-08-26 14:07:00,
2013-08-26 10:12:00,69.5,65.5,30.10,SW,217,22.0,28.0,87,0.00,,,0.00,183.00,VWS V14.01,2013-08-26 14:12:00,
2013-08-26 10:15:00,69.7,65.0,30.11,SW,228,24.0,25.0,85,0.00,,,0.00,132.00,VWS V14.01,2013-08-26 14:15:00,
2013-08-26 10:17:00,69.5,65.5,30.10,SW,224,23.0,24.0,87,0.00,,,0.00,144.00,VWS V14.01,2013-08-26 14:17:00,
2013-08-26 10:22:00,69.4,65.4,30.09,SW,227,21.0,25.0,87,0.00,,,0.00,199.00,VWS V14.01,2013-08-26 14:22:00,
2013-08-26 10:27:00,69.4,65.4,30.09,SW,226,26.0,26.0,87,0.00,,,0.00,188.00,VWS V14.01,2013-08-26 14:27:00,
2013-08-26 10:30:00,69.6,64.9,30.11,SW,236,22.0,26.0,85,0.00,,,0.00,204.00,VWS V14.01,2013-08-26 14:30:00,
2013-08-26 10:32:00,69.3,65.3,30.09,SW,215,22.0,24.0,87,0.00,,,0.00,144.00,VWS V14.01,2013-08-26 14:32:00,
2013-08-26 10:37:00,69.3,65.3,30.09,SW,228,24.0,25.0,87,0.00,,,0.00,179.00,VWS V14.01,2013-08-26 14:37:00,
2013-08-26 10:42:00,69.5,65.5,30.09,SW,221,24.0,27.0,87,0.00,,,0.00,265.00,VWS V14.01,2013-08-26 14:42:00,
2013-08-26 10:45:00,69.5,65.1,30.10,SW,221,24.0,26.0,86,0.00,,,0.00,160.00,VWS V14.01,2013-08-26 14:45:00,
2013-08-26 10:47:00,69.5,65.5,30.09,SW,229,22.0,25.0,87,0.00,,,0.00,346.00,VWS V14.01,2013-08-26 14:47:00,
2013-08-26 10:52:00,69.6,64.9,30.09,SW,226,25.0,25.0,85,0.00,,,0.00,237.00,VWS V14.01,2013-08-26 14:52:00,
2013-08-26 10:57:00,69.7,65.3,30.08,SW,225,24.0,25.0,86,0.00,,,0.00,197.00,VWS V14.01,2013-08-26 14:57:00,
2013-08-26 11:00:00,69.4,65.4,30.10,SW,224,25.0,27.0,87,0.00,,,0.00,199.00,VWS V14.01,2013-08-26 15:00:00,
2013-08-26 11:02:00,69.7,65.0,30.08,SW,222,21.0,24.0,85,0.00,,,0.00,269.00,VWS V14.01,2013-08-26 15:02:00,
2013-08-26 11:07:00,69.8,65.4,30.08,SW,218,21.0,24.0,86,0.00,,,0.00,323.00,VWS V14.01,2013-08-26 15:07:00,
2013-08-26 11:12:00,69.9,64.8,30.07,SSW,209,21.0,26.0,84,0.00,,,0.00,288.00,VWS V14.01,2013-08-26 15:12:00,
2013-08-26 11:15:00,69.5,65.5,30.10,SW,234,21.0,28.0,87,0.00,,,0.00,139.00,VWS V14.01,2013-08-26 15:15:00,
2013-08-26 11:17:00,69.9,65.2,30.07,SW,215,24.0,24.0,85,0.00,,,0.00,364.00,VWS V14.01,2013-08-26 15:17:00,
2013-08-26 11:22:00,69.8,65.4,30.07,SW,218,23.0,25.0,86,0.00,,,0.00,476.00,VWS V14.01,2013-08-26 15:22:00,
2013-08-26 11:28:00,70.0,65.6,30.06,SSW,209,22.0,25.0,86,0.00,,,0.00,545.00,VWS V14.01,2013-08-26 15:28:00,
2013-08-26 11:30:00,69.3,65.3,30.09,SW,229,23.0,26.0,87,0.00,,,0.00,153.00,VWS V14.01,2013-08-26 15:30:00,
2013-08-26 11:33:00,69.8,65.4,30.06,SW,217,24.0,24.0,86,0.00,,,0.00,350.00,VWS V14.01,2013-08-26 15:33:00,
2013-08-26 11:38:00,69.6,64.9,30.06,SW,222,24.0,27.0,85,0.00,,,0.00,427.00,VWS V14.01,2013-08-26 15:38:00,
2013-08-26 11:43:00,69.5,65.5,30.05,SSW,209,25.0,27.0,87,0.00,,,0.00,431.00,VWS V14.01,2013-08-26 15:43:00,
2013-08-26 11:45:00,69.5,65.5,30.09,SW,228,20.0,27.0,87,0.00,,,0.00,338.00,VWS V14.01,2013-08-26 15:45:00,
2013-08-26 11:48:00,69.4,65.4,30.05,SW,232,22.0,25.0,87,0.00,,,0.00,197.00,VWS V14.01,2013-08-26 15:48:00,
2013-08-26 11:53:00,69.2,64.8,30.05,SW,217,24.0,28.0,86,0.00,,,0.00,236.00,VWS V14.01,2013-08-26 15:53:00,
2013-08-26 11:58:00,69.2,65.2,30.05,SW,215,24.0,28.0,87,0.00,,,0.00,288.00,VWS V14.01,2013-08-26 15:58:00,
2013-08-26 12:00:00,69.7,65.0,30.08,SW,217,22.0,25.0,85,0.00,,,0.00,216.00,VWS V14.01,2013-08-26 16:00:00,
2013-08-26 12:03:00,69.3,65.3,30.05,SW,223,26.0,28.0,87,0.00,,,0.00,345.00,VWS V14.01,2013-08-26 16:03:00,
2013-08-26 12:08:00,69.4,65.4,30.05,SW,236,23.0,30.0,87,0.00,,,0.00,332.00,VWS V14.01,2013-08-26 16:08:00,
2013-08-26 12:13:00,69.5,65.1,30.05,SW,227,28.0,30.0,86,0.00,,,0.00,297.00,VWS V14.01,2013-08-26 16:13:00,
2013-08-26 12:15:00,69.8,65.1,30.07,SW,218,21.0,26.0,85,0.00,,,0.00,332.00,VWS V14.01,2013-08-26 16:15:00,
2013-08-26 12:18:00,69.5,65.1,30.05,SW,223,32.0,32.0,86,0.00,,,0.00,373.00,VWS V14.01,2013-08-26 16:18:00,
2013-08-26 12:23:00,69.6,65.2,30.05,SW,223,26.0,32.0,86,0.00,,,0.00,613.00,VWS V14.01,2013-08-26 16:23:00,
2013-08-26 12:28:00,69.7,65.0,30.04,SW,227,26.0,32.0,85,0.00,,,0.00,575.00,VWS V14.01,2013-08-26 16:28:00,
2013-08-26 12:30:00,69.9,65.2,30.06,SW,214,23.0,26.0,85,0.00,,,0.00,408.00,VWS V14.01,2013-08-26 16:30:00,
2013-08-26 12:33:00,69.8,65.1,30.04,SW,234,31.0,31.0,85,0.00,,,0.00,487.00,VWS V14.01,2013-08-26 16:33:00,
2013-08-26 12:38:00,69.9,65.2,30.03,SW,226,27.0,32.0,85,0.00,,,0.00,527.00,VWS V14.01,2013-08-26 16:38:00,
2013-08-26 12:43:00,69.8,65.1,30.03,SW,224,31.0,32.0,85,0.00,,,0.00,431.00,VWS V14.01,2013-08-26 16:43:00,
2013-08-26 12:45:00,69.5,65.5,30.05,SW,219,24.0,27.0,87,0.00,,,0.00,279.00,VWS V14.01,2013-08-26 16:45:00,
2013-08-26 12:48:00,69.9,65.5,30.03,SW,232,24.0,27.0,86,0.00,,,0.00,919.00,VWS V14.01,2013-08-26 16:48:00,
2013-08-26 12:53:00,70.1,65.7,30.03,SW,226,26.0,30.0,86,0.00,,,0.00,749.00,VWS V14.01,2013-08-26 16:53:00,
2013-08-26 12:58:00,69.9,65.5,30.03,SW,227,24.0,30.0,86,0.00,,,0.00,475.00,VWS V14.01,2013-08-26 16:58:00,
2013-08-26 13:00:00,69.3,65.6,30.05,SW,225,27.0,28.0,88,0.00,,,0.00,360.00,VWS V14.01,2013-08-26 17:00:00,
2013-08-26 13:03:00,70.0,65.6,30.03,SW,221,24.0,27.0,86,0.00,,,0.00,661.00,VWS V14.01,2013-08-26 17:03:00,
2013-08-26 13:08:00,70.2,65.8,30.03,SW,219,26.0,29.0,86,0.00,,,0.00,856.00,VWS V14.01,2013-08-26 17:08:00,
2013-08-26 13:13:00,70.3,65.6,30.02,SW,222,24.0,29.0,85,0.00,,,0.00,858.00,VWS V14.01,2013-08-26 17:13:00,
2013-08-26 13:15:00,69.5,65.1,30.05,SW,223,26.0,31.0,86,0.00,,,0.00,309.00,VWS V14.01,2013-08-26 17:15:00,
2013-08-26 13:18:00,70.3,65.6,30.02,SW,227,27.0,30.0,85,0.00,,,0.00,986.00,VWS V14.01,2013-08-26 17:18:00,
2013-08-26 13:23:00,70.1,65.4,30.02,SW,228,25.0,32.0,85,0.00,,,0.00,341.00,VWS V14.01,2013-08-26 17:23:00,
2013-08-26 13:28:00,70.3,65.9,30.02,SW,220,24.0,32.0,86,0.00,,,0.00,858.00,VWS V14.01,2013-08-26 17:28:00,
2013-08-26 13:30:00,69.8,65.1,30.04,SW,227,30.0,32.0,85,0.00,,,0.00,438.00,VWS V14.01,2013-08-26 17:30:00,
2013-08-26 13:33:00,70.2,65.5,30.02,SW,221,27.0,29.0,85,0.00,,,0.00,406.00,VWS V14.01,2013-08-26 17:33:00,
2013-08-26 13:38:00,70.3,65.6,30.01,SW,225,24.0,29.0,85,0.00,,,0.00,394.00,VWS V14.01,2013-08-26 17:38:00,
2013-08-26 13:43:00,70.4,65.7,30.02,SW,230,24.0,30.0,85,0.00,,,0.00,404.00,VWS V14.01,2013-08-26 17:43:00,
2013-08-26 13:45:00,69.9,65.5,30.03,SW,225,26.0,32.0,86,0.00,,,0.00,909.00,VWS V14.01,2013-08-26 17:45:00,
2013-08-26 13:48:00,70.5,66.1,30.01,SW,223,25.0,25.0,86,0.00,,,0.00,424.00,VWS V14.01,2013-08-26 17:48:00,
2013-08-26 13:53:00,70.3,65.6,30.01,SW,223,23.0,26.0,85,0.00,,,0.00,320.00,VWS V14.01,2013-08-26 17:53:00,
2013-08-26 13:58:00,70.2,65.5,30.01,SW,225,24.0,27.0,85,0.00,,,0.00,455.00,VWS V14.01,2013-08-26 17:58:00,
2013-08-26 14:00:00,69.9,65.5,30.03,SW,221,27.0,30.0,86,0.00,,,0.00,608.00,VWS V14.01,2013-08-26 18:00:00,
2013-08-26 14:03:00,70.2,65.8,30.01,WSW,250,24.0,26.0,86,0.00,,,0.00,323.00,VWS V14.01,2013-08-26 18:03:00,
2013-08-26 14:08:00,70.1,66.1,30.00,SW,225,24.0,28.0,87,0.00,,,0.00,376.00,VWS V14.01,2013-08-26 18:08:00,
2013-08-26 14:13:00,70.1,65.7,30.00,SW,224,24.0,29.0,86,0.00,,,0.00,413.00,VWS V14.01,2013-08-26 18:13:00,
2013-08-26 14:18:00,70.1,66.1,30.00,SW,222,27.0,28.0,87,0.00,,,0.00,399.00,VWS V14.01,2013-08-26 18:18:00,
2013-08-26 14:23:00,70.1,66.1,29.99,SW,216,22.0,29.0,87,0.00,,,0.00,506.00,VWS V14.01,2013-08-26 18:23:00,
2013-08-26 14:28:00,70.1,66.1,29.99,SW,226,20.0,29.0,87,0.00,,,0.00,459.00,VWS V14.01,2013-08-26 18:28:00,
2013-08-26 14:30:00,70.3,65.6,30.02,SW,221,24.0,32.0,85,0.00,,,0.00,348.00,VWS V14.01,2013-08-26 18:30:00,
2013-08-26 14:33:00,70.1,66.1,29.99,SW,222,26.0,26.0,87,0.00,,,0.00,494.00,VWS V14.01,2013-08-26 18:33:00,
2013-08-26 14:38:00,70.2,66.2,29.99,SW,229,21.0,28.0,87,0.00,,,0.00,461.00,VWS V14.01,2013-08-26 18:38:00,
2013-08-26 14:43:00,70.2,66.2,29.98,SW,218,24.0,28.0,87,0.00,,,0.00,555.00,VWS V14.01,2013-08-26 18:43:00,
2013-08-26 14:45:00,70.4,65.7,30.01,SW,227,20.0,30.0,85,0.00,,,0.00,452.00,VWS V14.01,2013-08-26 18:45:00,
2013-08-26 14:48:00,70.2,66.2,29.98,SW,219,24.0,26.0,87,0.00,,,0.00,473.00,VWS V14.01,2013-08-26 18:48:00,
2013-08-26 14:53:00,70.2,66.2,29.98,SW,222,23.0,26.0,87,0.00,,,0.00,515.00,VWS V14.01,2013-08-26 18:53:00,
2013-08-26 14:58:00,70.1,66.4,29.98,SW,221,25.0,27.0,88,0.00,,,0.00,369.00,VWS V14.01,2013-08-26 18:58:00,
2013-08-26 15:00:00,70.2,65.8,30.01,SW,219,24.0,27.0,86,0.00,,,0.00,323.00,VWS V14.01,2013-08-26 19:00:00,
2013-08-26 15:03:00,70.0,66.3,29.98,SW,223,24.0,26.0,88,0.00,,,0.00,610.00,VWS V14.01,2013-08-26 19:03:00,
2013-08-26 15:08:00,70.1,66.4,29.98,SW,219,20.0,26.0,88,0.00,,,0.00,385.00,VWS V14.01,2013-08-26 19:08:00,
2013-08-26 15:13:00,70.2,66.5,29.97,SW,220,22.0,26.0,88,0.00,,,0.00,645.00,VWS V14.01,2013-08-26 19:13:00,
2013-08-26 15:15:00,70.1,66.1,30.00,SW,218,23.0,29.0,87,0.00,,,0.00,396.00,VWS V14.01,2013-08-26 19:15:00,
2013-08-26 15:18:00,70.2,66.5,29.97,SW,216,22.0,25.0,88,0.00,,,0.00,468.00,VWS V14.01,2013-08-26 19:18:00,
2013-08-26 15:23:00,70.0,66.3,29.97,SW,224,20.0,26.0,88,0.00,,,0.00,591.00,VWS V14.01,2013-08-26 19:23:00,
2013-08-26 15:28:00,70.1,66.4,29.97,SW,223,22.0,26.0,88,0.00,,,0.00,540.00,VWS V14.01,2013-08-26 19:28:00,
2013-08-26 15:30:00,70.1,66.1,29.99,SW,222,26.0,29.0,87,0.00,,,0.00,494.00,VWS V14.01,2013-08-26 19:30:00,
2013-08-26 15:33:00,70.0,66.3,29.97,SW,217,21.0,24.0,88,0.00,,,0.00,501.00,VWS V14.01,2013-08-26 19:33:00,
2013-08-26 15:38:00,70.1,66.7,29.97,SW,223,25.0,25.0,89,0.00,,,0.00,499.00,VWS V14.01,2013-08-26 19:38:00,
2013-08-26 15:43:00,70.0,66.3,29.96,SW,217,20.0,26.0,88,0.00,,,0.00,417.00,VWS V14.01,2013-08-26 19:43:00,
2013-08-26 15:45:00,70.3,66.2,29.99,SW,222,24.0,28.0,87,0.00,,,0.00,480.00,VWS V14.01,2013-08-26 19:45:00,
2013-08-26 15:48:00,70.0,66.6,29.96,SW,216,24.0,24.0,89,0.00,,,0.00,469.00,VWS V14.01,2013-08-26 19:48:00,
2013-08-26 15:53:00,69.9,66.2,29.96,SSW,210,24.0,26.0,88,0.00,,,0.00,367.00,VWS V14.01,2013-08-26 19:53:00,
2013-08-26 15:58:00,70.0,66.3,29.96,SW,220,19.0,26.0,88,0.00,,,0.00,366.00,VWS V14.01,2013-08-26 19:58:00,
2013-08-26 16:00:00,70.0,66.3,29.98,SW,235,21.0,27.0,88,0.00,,,0.00,369.00,VWS V14.01,2013-08-26 20:00:00,
2013-08-26 16:03:00,70.2,66.5,29.96,SW,217,24.0,24.0,88,0.00,,,0.00,313.00,VWS V14.01,2013-08-26 20:03:00,
2013-08-26 16:08:00,70.1,66.4,29.95,SW,224,24.0,25.0,88,0.00,,,0.00,258.00,VWS V14.01,2013-08-26 20:08:00,
2013-08-26 16:13:00,70.1,66.7,29.95,SW,221,24.0,26.0,89,0.00,,,0.00,250.00,VWS V14.01,2013-08-26 20:13:00,
2013-08-26 16:15:00,70.2,66.5,29.97,SW,217,23.0,26.0,88,0.00,,,0.00,561.00,VWS V14.01,2013-08-26 20:15:00,
2013-08-26 16:18:00,70.0,66.3,29.95,SW,225,19.0,25.0,88,0.00,,,0.00,230.00,VWS V14.01,2013-08-26 20:18:00,
2013-08-26 16:23:00,70.1,66.7,29.95,SSW,212,21.0,26.0,89,0.00,,,0.00,211.00,VWS V14.01,2013-08-26 20:23:00,
2013-08-26 16:28:00,70.1,66.4,29.95,SW,227,22.0,28.0,88,0.00,,,0.00,213.00,VWS V14.01,2013-08-26 20:28:00,
2013-08-26 16:30:00,70.1,66.4,29.97,SW,216,24.0,26.0,88,0.00,,,0.00,390.00,VWS V14.01,2013-08-26 20:30:00,
2013-08-26 16:33:00,70.1,66.4,29.94,SW,220,25.0,30.0,88,0.00,,,0.00,232.00,VWS V14.01,2013-08-26 20:33:00,
2013-08-26 16:38:00,70.2,66.5,29.94,SW,226,24.0,30.0,88,0.00,,,0.00,279.00,VWS V14.01,2013-08-26 20:38:00,
2013-08-26 16:43:00,70.3,66.6,29.94,SW,223,23.0,30.0,88,0.00,,,0.00,308.00,VWS V14.01,2013-08-26 20:43:00,
2013-08-26 16:45:00,70.0,66.6,29.96,SW,229,22.0,26.0,89,0.00,,,0.00,376.00,VWS V14.01,2013-08-26 20:45:00,
2013-08-26 16:48:00,70.3,66.6,29.94,SW,227,25.0,27.0,88,0.00,,,0.00,241.00,VWS V14.01,2013-08-26 20:48:00,
2013-08-26 16:53:00,70.3,66.2,29.94,SW,226,24.0,27.0,87,0.00,,,0.00,230.00,VWS V14.01,2013-08-26 20:53:00,
2013-08-26 16:58:00,70.2,66.2,29.94,SW,224,25.0,28.0,87,0.00,,,0.00,211.00,VWS V14.01,2013-08-26 20:58:00,
2013-08-26 17:00:00,70.1,66.4,29.96,SW,224,22.0,26.0,88,0.00,,,0.00,352.00,VWS V14.01,2013-08-26 21:00:00,
2013-08-26 17:03:00,70.1,66.4,29.94,SW,233,23.0,27.0,88,0.00,,,0.00,176.00,VWS V14.01,2013-08-26 21:03:00,
2013-08-26 17:08:00,70.1,66.4,29.94,SW,225,23.0,27.0,88,0.00,,,0.00,171.00,VWS V14.01,2013-08-26 21:08:00,
2013-08-26 17:13:00,70.0,66.3,29.94,SW,227,27.0,29.0,88,0.00,,,0.00,167.00,VWS V14.01,2013-08-26 21:13:00,
2013-08-26 17:15:00,70.1,66.7,29.95,SW,215,24.0,26.0,89,0.00,,,0.00,243.00,VWS V14.01,2013-08-26 21:15:00,
2013-08-26 17:18:00,70.0,66.3,29.94,SW,229,26.0,29.0,88,0.00,,,0.00,153.00,VWS V14.01,2013-08-26 21:18:00,
2013-08-26 17:23:00,70.0,66.6,29.94,SW,220,25.0,29.0,89,0.00,,,0.00,120.00,VWS V14.01,2013-08-26 21:23:00,
2013-08-26 17:28:00,70.0,66.6,29.94,SW,220,28.0,29.0,89,0.00,,,0.00,102.00,VWS V14.01,2013-08-26 21:28:00,
2013-08-26 17:30:00,70.2,66.8,29.95,SW,227,23.0,28.0,89,0.00,,,0.00,221.00,VWS V14.01,2013-08-26 21:30:00,
2013-08-26 17:33:00,69.9,66.8,29.94,SW,227,25.0,26.0,90,0.00,,,0.00,91.00,VWS V14.01,2013-08-26 21:33:00,
2013-08-26 17:38:00,69.9,67.0,29.94,SW,228,21.0,-999.0,90,-99.99,,,0.00,77,weatherlink.com 1.10,2013-08-26 21:38:00,
2013-08-26 17:43:00,69.8,66.7,29.94,SW,225,24.0,27.0,90,0.00,,,0.00,81.00,VWS V14.01,2013-08-26 21:43:00,
2013-08-26 17:45:00,70.3,66.6,29.95,SW,217,24.0,30.0,88,0.00,,,0.00,236.00,VWS V14.01,2013-08-26 21:45:00,
2013-08-26 17:48:00,69.8,66.7,29.94,SW,229,23.0,25.0,90,0.00,,,0.00,79.00,VWS V14.01,2013-08-26 21:48:00,
2013-08-26 17:53:00,69.9,66.8,29.94,SW,227,24.0,26.0,90,0.00,,,0.00,69.00,VWS V14.01,2013-08-26 21:53:00,
2013-08-26 17:58:00,69.9,66.5,29.93,SW,234,22.0,27.0,89,0.00,,,0.00,76.00,VWS V14.01,2013-08-26 21:58:00,
2013-08-26 18:00:00,70.2,66.5,29.94,SW,226,24.0,28.0,88,0.00,,,0.00,207.00,VWS V14.01,2013-08-26 22:00:00,
2013-08-26 18:03:00,70.0,66.6,29.93,SW,219,23.0,24.0,89,0.00,,,0.00,84.00,VWS V14.01,2013-08-26 22:03:00,
2013-08-26 18:08:00,70.0,66.6,29.93,SW,221,20.0,25.0,89,0.00,,,0.00,79.00,VWS V14.01,2013-08-26 22:08:00,
2013-08-26 18:13:00,70.1,66.7,29.93,SW,223,24.0,25.0,89,0.00,,,0.00,69.00,VWS V14.01,2013-08-26 22:13:00,
2013-08-26 18:15:00,70.0,66.3,29.94,SW,229,27.0,29.0,88,0.00,,,0.00,162.00,VWS V14.01,2013-08-26 22:15:00,
2013-08-26 18:18:00,70.1,67.0,29.93,SW,223,22.0,25.0,90,0.00,,,0.00,47.00,VWS V14.01,2013-08-26 22:18:00,
2013-08-26 18:23:00,70.1,67.0,29.93,SW,229,20.0,25.0,90,0.00,,,0.00,33.00,VWS V14.01,2013-08-26 22:23:00,
2013-08-26 18:28:00,70.1,67.0,29.93,SW,221,20.0,25.0,90,0.00,,,0.00,26.00,VWS V14.01,2013-08-26 22:28:00,
2013-08-26 18:30:00,69.9,66.8,29.94,SW,220,24.0,29.0,90,0.00,,,0.00,97.00,VWS V14.01,2013-08-26 22:30:00,
2013-08-26 18:33:00,70.1,67.0,29.93,SW,227,17.0,23.0,90,0.00,,,0.00,23.00,VWS V14.01,2013-08-26 22:33:00,
2013-08-26 18:38:00,70.1,67.0,29.93,SW,223,18.0,23.0,90,0.00,,,0.00,23.00,VWS V14.01,2013-08-26 22:38:00,
2013-08-26 18:43:00,70.2,67.4,29.93,SW,229,17.0,23.0,91,0.00,,,0.00,25.00,VWS V14.01,2013-08-26 22:43:00,
2013-08-26 18:45:00,69.8,66.7,29.94,SW,223,25.0,27.0,90,0.00,,,0.00,84.00,VWS V14.01,2013-08-26 22:45:00,
2013-08-26 18:48:00,70.3,67.2,29.93,SW,227,20.0,24.0,90,0.00,,,0.00,26.00,VWS V14.01,2013-08-26 22:48:00,
2013-08-26 18:53:00,70.3,67.2,29.93,SW,223,22.0,24.0,90,0.00,,,0.00,23.00,VWS V14.01,2013-08-26 22:53:00,
2013-08-26 18:58:00,70.1,67.0,29.93,SW,223,22.0,24.0,90,0.00,,,0.00,18.00,VWS V14.01,2013-08-26 22:58:00,
2013-08-26 19:00:00,69.9,66.5,29.93,SW,228,22.0,27.0,89,0.00,,,0.00,81.00,VWS V14.01,2013-08-26 23:00:00,
2013-08-26 19:03:00,70.1,67.4,29.93,SW,218,22.0,24.0,91,0.00,,,0.00,14.00,VWS V14.01,2013-08-26 23:03:00,
2013-08-26 19:08:00,70.0,67.3,29.93,SW,220,18.0,24.0,91,0.00,,,0.00,9.00,VWS V14.01,2013-08-26 23:08:00,
2013-08-26 19:13:00,69.9,67.2,29.93,SW,226,20.0,24.0,91,0.00,,,0.00,7.00,VWS V14.01,2013-08-26 23:13:00,
2013-08-26 19:15:00,70.1,67.0,29.93,SW,222,21.0,25.0,90,0.00,,,0.00,58.00,VWS V14.01,2013-08-26 23:15:00,
2013-08-26 19:18:00,69.8,67.1,29.93,SW,223,21.0,24.0,91,0.00,,,0.00,5.00,VWS V14.01,2013-08-26 23:18:00,
2013-08-26 19:23:00,69.8,67.1,29.93,SW,226,19.0,24.0,91,0.00,,,0.00,0.00,VWS V14.01,2013-08-26 23:23:00,
2013-08-26 19:28:00,69.7,67.0,29.93,SW,228,20.0,24.0,91,0.00,,,0.00,0.00,VWS V14.01,2013-08-26 23:28:00,
2013-08-26 19:30:00,70.2,67.1,29.94,SW,227,22.0,25.0,90,0.00,,,0.00,23.00,VWS V14.01,2013-08-26 23:30:00,
2013-08-26 19:33:00,69.7,67.3,29.93,SW,220,20.0,23.0,92,0.00,,,0.00,0.00,VWS V14.01,2013-08-26 23:33:00,
2013-08-26 19:38:00,69.7,67.3,29.93,SW,223,22.0,24.0,92,0.00,,,0.00,0.00,VWS V14.01,2013-08-26 23:38:00,
2013-08-26 19:43:00,69.8,67.4,29.93,SW,223,20.0,24.0,92,0.00,,,0.00,0.00,VWS V14.01,2013-08-26 23:43:00,
2013-08-26 19:45:00,70.3,67.2,29.93,SW,223,22.0,23.0,90,0.00,,,0.00,26.00,VWS V14.01,2013-08-26 23:45:00,
2013-08-26 19:48:00,69.8,67.4,29.93,SW,233,23.0,23.0,92,0.00,,,0.00,0.00,VWS V14.01,2013-08-26 23:48:00,
2013-08-26 19:54:00,69.9,67.5,29.93,SW,228,19.0,23.0,92,0.00,,,0.00,0.00,VWS V14.01,2013-08-26 23:54:00,
2013-08-26 19:59:00,70.0,67.6,29.93,SW,226,17.0,23.0,92,0.00,,,0.00,0.00,VWS V14.01,2013-08-26 23:59:00,
2013-08-26 20:00:00,70.1,67.4,29.93,SW,221,20.0,24.0,91,0.00,,,0.00,16.00,VWS V14.01,2013-08-27 00:00:00,
2013-08-26 20:04:00,70.1,67.7,29.93,SW,225,17.0,19.0,92,0.00,,,0.00,0.00,VWS V14.01,2013-08-27 00:04:00,
2013-08-26 20:09:00,70.2,67.8,29.93,SW,228,18.0,19.0,92,0.00,,,0.00,0.00,VWS V14.01,2013-08-27 00:09:00,
2013-08-26 20:14:00,70.4,67.7,29.93,SW,234,14.0,19.0,91,0.00,,,0.00,0.00,VWS V14.01,2013-08-27 00:14:00,
2013-08-26 20:15:00,69.9,67.2,29.93,SW,220,20.0,24.0,91,0.00,,,0.00,7.00,VWS V14.01,2013-08-27 00:15:00,
2013-08-26 20:19:00,70.6,67.8,29.92,SW,228,17.0,19.0,91,0.00,,,0.00,0.00,VWS V14.01,2013-08-27 00:19:00,
2013-08-26 20:24:00,70.5,67.4,29.92,SW,224,19.0,20.0,90,0.00,,,0.00,0.00,VWS V14.01,2013-08-27 00:24:00,
2013-08-26 20:29:00,70.3,67.2,29.93,SW,226,19.0,22.0,90,0.00,,,0.00,0.00,VWS V14.01,2013-08-27 00:29:00,
2013-08-26 20:30:00,69.8,67.4,29.93,SW,236,18.0,24.0,92,0.00,,,0.00,0.00,VWS V14.01,2013-08-27 00:30:00,
2013-08-26 20:34:00,70.2,67.4,29.93,SW,227,19.0,21.0,91,0.00,,,0.00,0.00,VWS V14.01,2013-08-27 00:34:00,
2013-08-26 20:39:00,70.1,67.4,29.93,SW,234,19.0,22.0,91,0.00,,,0.00,0.00,VWS V14.01,2013-08-27 00:39:00,
2013-08-26 20:44:00,70.0,67.3,29.93,SW,234,16.0,22.0,91,0.00,,,0.00,0.00,VWS V14.01,2013-08-27 00:44:00,
2013-08-26 20:45:00,69.8,67.4,29.93,SW,229,22.0,24.0,92,0.00,,,0.00,0.00,VWS V14.01,2013-08-27 00:45:00,
2013-08-26 20:49:00,70.0,67.3,29.93,SW,231,18.0,22.0,91,0.00,,,0.00,0.00,VWS V14.01,2013-08-27 00:49:00,
2013-08-26 20:54:00,70.0,67.3,29.93,SW,227,19.0,22.0,91,0.00,,,0.00,0.00,VWS V14.01,2013-08-27 00:54:00,
2013-08-26 20:59:00,69.9,67.2,29.92,SW,229,16.0,22.0,91,0.00,,,0.00,0.00,VWS V14.01,2013-08-27 00:59:00,
2013-08-26 21:00:00,70.0,67.6,29.93,SW,225,18.0,23.0,92,0.00,,,0.00,0.00,VWS V14.01,2013-08-27 01:00:00,
2013-08-26 21:04:00,70.0,67.6,29.92,SW,231,20.0,23.0,92,0.00,,,0.00,0.00,VWS V14.01,2013-08-27 01:04:00,
2013-08-26 21:09:00,70.1,67.7,29.92,SW,232,23.0,24.0,92,0.00,,,0.00,0.00,VWS V14.01,2013-08-27 01:09:00,
2013-08-26 21:14:00,70.2,67.8,29.92,SW,229,21.0,24.0,92,0.00,,,0.00,0.00,VWS V14.01,2013-08-27 01:14:00,
2013-08-26 21:15:00,70.5,67.8,29.93,SW,236,17.0,19.0,91,0.00,,,0.00,0.00,VWS V14.01,2013-08-27 01:15:00,
2013-08-26 21:19:00,70.2,67.8,29.92,SW,231,19.0,22.0,92,0.00,,,0.00,0.00,VWS V14.01,2013-08-27 01:19:00,
2013-08-26 21:24:00,70.1,67.7,29.92,SW,232,20.0,24.0,92,0.00,,,0.00,0.00,VWS V14.01,2013-08-27 01:24:00,
2013-08-26 21:29:00,70.1,67.7,29.92,SW,231,22.0,25.0,92,0.00,,,0.00,0.00,VWS V14.01,2013-08-27 01:29:00,
2013-08-26 21:34:00,70.2,67.8,29.92,SW,232,18.0,23.0,92,0.00,,,0.00,0.00,VWS V14.01,2013-08-27 01:34:00,
2013-08-26 21:39:00,70.1,67.7,29.92,SW,235,20.0,24.0,92,0.00,,,0.00,0.00,VWS V14.01,2013-08-27 01:39:00,
2013-08-26 21:44:00,70.1,67.7,29.92,WSW,242,18.0,24.0,92,0.00,,,0.00,0.00,VWS V14.01,2013-08-27 01:44:00,
2013-08-26 21:49:00,70.0,67.6,29.92,WSW,240,17.0,24.0,92,0.00,,,0.00,0.00,VWS V14.01,2013-08-27 01:49:00,
2013-08-26 21:54:00,70.1,67.7,29.93,WSW,246,20.0,24.0,92,0.00,,,0.00,0.00,VWS V14.01,2013-08-27 01:54:00,
2013-08-26 21:59:00,70.0,67.6,29.93,WSW,242,17.0,24.0,92,0.00,,,0.00,0.00,VWS V14.01,2013-08-27 01:59:00,
2013-08-26 22:00:00,70.0,67.6,29.92,SW,232,21.0,23.0,92,0.00,,,0.00,0.00,VWS V14.01,2013-08-27 02:00:00,
2013-08-26 22:04:00,70.0,67.6,29.93,WSW,248,13.0,16.0,92,0.00,,,0.00,0.00,VWS V14.01,2013-08-27 02:04:00,
2013-08-26 22:09:00,70.1,67.7,29.93,WSW,238,16.0,17.0,92,0.00,,,0.00,0.00,VWS V14.01,2013-08-27 02:09:00,
2013-08-26 22:14:00,70.1,67.7,29.93,WSW,244,14.0,17.0,92,0.00,,,0.00,0.00,VWS V14.01,2013-08-27 02:14:00,
2013-08-26 22:15:00,70.1,67.7,29.92,SW,232,22.0,24.0,92,0.00,,,0.00,0.00,VWS V14.01,2013-08-27 02:15:00,
2013-08-26 22:19:00,70.1,67.7,29.93,WSW,249,12.0,16.0,92,0.00,,,0.00,0.00,VWS V14.01,2013-08-27 02:19:00,
2013-08-26 22:24:00,70.2,67.8,29.93,WSW,245,13.0,16.0,92,0.00,,,0.00,0.00,VWS V14.01,2013-08-27 02:24:00,
2013-08-26 22:29:00,70.2,67.8,29.92,WSW,258,14.0,16.0,92,0.00,,,0.00,0.00,VWS V14.01,2013-08-27 02:29:00,
2013-08-26 22:30:00,70.1,67.7,29.92,SW,232,22.0,25.0,92,0.00,,,0.00,0.00,VWS V14.01,2013-08-27 02:30:00,
2013-08-26 22:34:00,70.3,67.9,29.92,WSW,244,12.0,14.0,92,0.00,,,0.00,0.00,VWS V14.01,2013-08-27 02:34:00,
2013-08-26 22:39:00,70.4,68.0,29.92,WSW,250,12.0,15.0,92,0.00,,,0.00,0.00,VWS V14.01,2013-08-27 02:39:00,
2013-08-26 22:44:00,70.4,68.0,29.92,WSW,244,11.0,15.0,92,0.00,,,0.00,0.00,VWS V14.01,2013-08-27 02:44:00,
2013-08-26 22:45:00,70.1,67.7,29.93,WSW,240,17.0,24.0,92,0.00,,,0.00,0.00,VWS V14.01,2013-08-27 02:45:00,
2013-08-26 22:49:00,70.3,67.9,29.92,WSW,241,13.0,13.0,92,0.00,,,0.00,0.00,VWS V14.01,2013-08-27 02:49:00,
2013-08-26 22:54:00,70.3,67.9,29.92,WSW,242,11.0,14.0,92,0.00,,,0.00,0.00,VWS V14.01,2013-08-27 02:54:00,
2013-08-26 22:59:00,70.3,67.9,29.92,WSW,245,12.0,14.0,92,0.00,,,0.00,0.00,VWS V14.01,2013-08-27 02:59:00,
2013-08-26 23:00:00,70.1,67.7,29.93,WSW,239,15.0,24.0,92,0.00,,,0.00,0.00,VWS V14.01,2013-08-27 03:00:00,
2013-08-26 23:04:00,70.3,67.9,29.92,WSW,245,12.0,13.0,92,0.00,,,0.00,0.00,VWS V14.01,2013-08-27 03:04:00,
2013-08-26 23:09:00,70.4,68.0,29.92,SW,233,10.0,13.0,92,0.00,,,0.00,0.00,VWS V14.01,2013-08-27 03:09:00,
2013-08-26 23:14:00,70.5,68.1,29.91,SW,236,13.0,14.0,92,0.00,,,0.00,0.00,VWS V14.01,2013-08-27 03:14:00,
2013-08-26 23:15:00,70.2,67.8,29.93,WSW,246,14.0,17.0,92,0.00,,,0.00,0.00,VWS V14.01,2013-08-27 03:15:00,
2013-08-26 23:19:00,70.3,67.9,29.91,WSW,238,12.0,14.0,92,0.00,,,0.00,0.00,VWS V14.01,2013-08-27 03:19:00,
2013-08-26 23:24:00,70.2,67.8,29.91,SW,235,12.0,14.0,92,0.00,,,0.00,0.00,VWS V14.01,2013-08-27 03:24:00,
2013-08-26 23:29:00,70.2,68.1,29.92,SW,236,13.0,14.0,93,0.00,,,0.00,0.00,VWS V14.01,2013-08-27 03:29:00,
2013-08-26 23:30:00,70.3,67.9,29.92,WSW,246,13.0,16.0,92,0.00,,,0.00,0.00,VWS V14.01,2013-08-27 03:30:00,
2013-08-26 23:34:00,70.1,68.0,29.91,SW,234,13.0,16.0,93,0.00,,,0.00,0.00,VWS V14.01,2013-08-27 03:34:00,
2013-08-26 23:39:00,70.1,68.0,29.91,WSW,238,12.0,16.0,93,0.00,,,0.00,0.00,VWS V14.01,2013-08-27 03:39:00,
2013-08-26 23:44:00,70.0,67.9,29.91,WSW,238,13.0,16.0,93,0.00,,,0.00,0.00,VWS V14.01,2013-08-27 03:44:00,
2013-08-26 23:45:00,70.3,67.9,29.92,WSW,242,12.0,15.0,92,0.00,,,0.00,0.00,VWS V14.01,2013-08-27 03:45:00,
2013-08-26 23:49:00,69.9,68.1,29.91,SW,231,13.0,15.0,94,0.00,,,0.00,0.00,VWS V14.01,2013-08-27 03:49:00,
2013-08-26 23:54:00,69.9,68.1,29.91,SW,230,16.0,17.0,94,0.00,,,0.00,0.00,VWS V14.01,2013-08-27 03:54:00,
2013-08-26 23:59:00,69.7,67.9,29.91,WSW,240,17.0,20.0,94,0.00,,,0.00,0.00,VWS V14.01,2013-08-27 03:59:00,